GW6233 Weather Reports


time (UTC)temp
C
wind
direction
speed
KPH
gust
KPH
rain 1hr
cm
rain 24hr
cm
rain mn
cm
humidity
%
barometer
mb
20260504150831 17 215 1.6 6.4 0.00 0.00 0.00 59 1012.7
20260504140858 15 218 3.2 6.4 0.00 0.00 0.00 65 1012.9
20260504081727 7 203 1.6 3.2 0.00 0.00 0.00 71 1014.1
20260504080705 7 207 1.6 3.2 0.00 0.00 0.00 71 1014.1
20260504050631 7 199 1.6 3.2 0.00 0.00 0.00 66 1013.8
20260504045628 7 207 1.6 3.2 0.00 0.00 0.00 66 1013.8
20260504044626 7 210 1.6 4.8 0.00 0.00 0.00 67 1013.6
20260504043625 7 194 1.6 3.2 0.00 0.00 0.00 67 1013.6
20260504042622 7 171 1.6 3.2 0.00 0.00 0.00 67 1013.5
20260504041620 7 176 1.6 1.6 0.00 0.00 0.00 67 1013.3
20260504040618 6 185 1.6 1.6 0.00 0.00 0.00 67 1013.3
20260504035615 7 168 1.6 1.6 0.00 0.00 0.00 66 1013.2
20260504034636 7 161 1.6 1.6 0.00 0.00 0.00 66 1013.2
20260504033612 7 198 1.6 1.6 0.00 0.00 0.00 66 1013.2
20260504032610 7 172 1.6 1.6 0.00 0.00 0.00 64 1013.1
20260504031608 7 163 1.6 1.6 0.00 0.00 0.00 64 1013.1
20260504030606 7 135 1.6 1.6 0.00 0.00 0.00 63 1013.1
20260504025624 7 126 1.6 1.6 0.00 0.00 0.00 63 1013.1
20260504024625 7 164 1.6 1.6 0.00 0.00 0.00 63 1013.1
20260504023601 7 153 1.6 1.6 0.00 0.00 0.00 62 1013.2
20260504022600 7 144 1.6 1.6 0.00 0.00 0.00 61 1013.1
20260504021556 7 135 1.6 1.6 0.00 0.00 0.00 59 1013.2
20260504020614 8 90 1.6 1.6 0.00 0.00 0.00 59 1013.1
20260504015552 8 135 1.6 1.6 0.00 0.00 0.00 59 1013.1
20260504014550 8 90 1.6 1.6 0.00 0.00 0.00 58 1013.0
20260504013550 8 126 1.6 1.6 0.00 0.00 0.00 57 1012.9
20260504012551 9 158 1.6 1.6 0.00 0.00 0.00 57 1012.8
20260504011544 9 172 1.6 1.6 0.00 0.00 0.00 56 1012.7
20260504010543 10 135 1.6 1.6 0.00 0.00 0.00 54 1012.5
20260504005541 10 0.0 1.6 0.00 0.00 0.00 52 1012.4
20260504004538 11 175 1.6 1.6 0.00 0.00 0.00 51 1012.2
20260504003536 12 146 1.6 1.6 0.00 0.00 0.00 50 1012.2
20260504002534 12 158 1.6 1.6 0.00 0.00 0.00 48 1012.0
20260504001532 13 183 1.6 1.6 0.00 0.00 0.00 46 1011.9
20260504000530 13 208 1.6 4.8 0.00 0.00 0.00 45 1011.8
20260503235528 13 216 1.6 6.4 0.00 0.00 0.00 44 1011.9
20260503234527 13 210 1.6 4.8 0.00 0.00 0.00 43 1011.8
20260503233524 14 213 1.6 6.4 0.00 0.00 0.00 43 1011.5
20260503232523 14 213 1.6 6.4 0.00 0.00 0.00 42 1011.5
20260503231520 14 221 1.6 4.8 0.00 0.00 0.00 42 1011.4
20260503230518 15 225 1.6 6.4 0.00 0.00 0.00 41 1011.3
20260503225516 15 206 1.6 6.4 0.00 0.00 0.00 41 1011.4
20260503224514 15 209 1.6 11.3 0.00 0.00 0.00 41 1011.5
20260503223512 15 225 3.2 11.3 0.00 0.00 0.00 40 1011.4
20260503222510 15 203 1.6 6.4 0.00 0.00 0.00 40 1011.3
20260503221508 16 315 3.2 9.7 0.00 0.00 0.00 39 1011.4
20260503220517 16 217 4.8 11.3 0.00 0.00 0.00 38 1011.4
20260503215504 16 225 3.2 20.9 0.00 0.00 0.00 39 1011.3
20260503214503 16 225 4.8 20.9 0.00 0.00 0.00 39 1011.4
20260503213540 16 225 3.2 9.7 0.00 0.00 0.00 39 1011.3
20260503212458 16 228 3.2 19.3 0.00 0.00 0.00 39 1011.3
20260503211516 16 323 3.2 11.3 0.00 0.00 0.00 38 1011.4
20260503210514 17 270 4.8 14.5 0.00 0.00 0.00 38 1011.3
20260503205453 17 240 3.2 14.5 0.00 0.00 0.00 39 1011.3
20260503204450 17 247 4.8 14.5 0.00 0.00 0.00 38 1011.3
20260503203447 17 225 3.2 9.7 0.00 0.00 0.00 39 1011.2
20260503202508 16 212 6.4 22.5 0.00 0.00 0.00 38 1011.4
20260503201504 16 298 4.8 22.5 0.00 0.00 0.00 39 1011.3
20260503200442 16 29 4.8 14.5 0.00 0.00 0.00 38 1011.3
20260503195440 16 225 1.6 11.3 0.00 0.00 0.00 40 1011.4
20260503194439 16 45 3.2 11.3 0.00 0.00 0.00 39 1011.5
20260503193437 16 299 6.4 14.5 0.00 0.00 0.00 38 1011.5
20260503192456 16 229 3.2 9.7 0.00 0.00 0.00 40 1011.7
20260503191433 16 350 4.8 14.5 0.00 0.00 0.00 41 1011.8
20260503190451 16 221 6.4 11.3 0.00 0.00 0.00 39 1011.9
20260503185428 16 323 3.2 14.5 0.00 0.00 0.00 41 1012.0
20260503184425 15 299 4.8 16.1 0.00 0.00 0.00 42 1012.1
20260503183424 15 235 6.4 20.9 0.00 0.00 0.00 40 1012.0
20260503182442 15 245 3.2 11.3 0.00 0.00 0.00 43 1012.2
20260503181420 15 227 3.2 9.7 0.00 0.00 0.00 42 1012.3
20260503180418 15 225 4.8 17.7 0.00 0.00 0.00 44 1012.2
20260503175416 15 233 3.2 11.3 0.00 0.00 0.00 44 1012.2
20260503174415 13 322 6.4 16.1 0.00 0.00 0.00 46 1012.2
20260503173414 13 18 4.8 14.5 0.00 0.00 0.00 46 1012.3
20260503172410 13 217 4.8 9.7 0.00 0.00 0.00 45 1012.2
20260503171408 13 48 3.2 9.7 0.00 0.00 0.00 47 1012.1
20260503170411 12 0 4.8 14.5 0.00 0.00 0.00 48 1012.3